CAPE
286 211 419 417 590 1087 1069 1486 1326 1255 1720 1026 1599 1564 1478 1728 1638 1161 1164 1491 1792 1780 1778 1426 1537 1638 1468 1377 1428 1554 1516 1311 1251 1230 1116 1657 1138 1338 1967 1525 1911 2301 2894 2976 3073 3004 3039 3126 2695 3538 3207 3256 3234 3107 2996 3396 2787 2936 2334 3216 2662 1900 1812 867 496 589 596 429 74 288 482 829 440 629 671 733 375 328 323 117 360 270 284 356 377
253 126 365 356 602 880 1147 1414 1305 1405 1797 1210 1681 1668 1494 1750 1561 1302 1153 1316 1508 1623 1631 1640 1542 1658 1401 1319 1383 1592 1576 1398 1589 1270 1474 1179 1277 1619 1554 1540 1954 2465 2735 3566 3498 3098 3176 2773 2930 4257 3491 3467 3854 3683 3921 3092 3186 2968 2287 2859 2123 1534 1812 1071 1008 1292 689 348 352 253 248 197 545 375 102 284 617 545 392 326 357 247 391 270 302
259 167 226 332 563 793 1292 1303 1395 1496 1716 1272 1740 1813 1577 1901 1717 1498 1357 1228 1250 1430 1666 1859 1448 1472 1461 1313 1258 1478 1490 1572 1447 1375 1405 1605 1558 1424 1836 1859 2126 2748 2998 2944 2998 3476 3208 3618 3057 3144 3526 3469 3589 3662 3058 2860 2589 2368 2457 2613 3031 1860 938 733 1132 1034 1519 134 153 146 73 135 40 304 273 589 224 631 318 295 415 284 212 445 622
262 227 183 262 502 948 1138 1320 1407 1534 1644 1402 1668 1708 1574 2029 1972 1726 1655 1474 1284 1386 1630 1705 1665 1609 1923 1568 1696 1288 1381 1714 1686 1842 1548 1034 1130 1069 2507 2249 1977 2722 2909 2371 2747 3366 3827 3398 2917 3198 3861 3948 3422 3574 3272 2549 2451 2164 2759 3099 2869 2862 1324 1177 801 604 629 772 527 204 153 13 234 132 467 434 170 195 177 229 276 132 189 284 414
219 234 199 228 462 716 1035 1380 1446 1513 1478 1556 1590 1572 1388 2174 1994 2001 1743 1582 1364 1629 1775 1826 2170 2150 2636 2624 2616 2057 1917 2208 2065 1546 1844 585 877 1142 2249 2247 2331 2614 2625 2751 2595 3937 3845 3427 3673 3494 3820 3233 3071 3223 2515 2430 2228 2963 2583 2805 2384 2698 2578 1940 1404 929 1312 1001 1762 778 325 0 236 414 156 591 226 207 108 136 182 12 58 242 418
175 250 217 171 324 473 1023 1265 1315 1473 1364 1410 1432 1292 1475 2178 2175 2173 1889 1684 1607 1826 1854 2013 2259 2368 2354 2435 2521 2520 2530 2254 2205 1454 1261 713 555 753 2082 1957 1838 2768 2627 2836 2536 2924 2764 3911 3570 3937 3610 2748 2574 3095 2763 2443 1491 3184 1936 2494 3542 2708 3105 2928 1996 581 560 1040 542 483 808 1432 918 839 328 2148 1021 172 63 404 457 965 402 213 458
94 184 209 168 325 414 758 1188 1102 1371 1322 1290 1567 1352 1375 2096 2297 2323 1978 1764 1672 1985 2159 2154 2224 2152 2159 1648 1812 2015 1847 1644 1671 1331 1218 1058 951 579 1895 1791 2266 2495 2608 2867 3153 3200 3834 3896 4491 3471 3422 3456 2474 2929 2548 2433 1791 2472 2962 3105 3387 3033 3169 3750 2888 2014 808 603 888 780 448 402 1028 808 1329 581 1396 1422 1337 486 208 372 545 698 1154
121 135 162 218 270 314 551 898 1002 1032 1162 1273 1495 1455 1707 1766 2569 2402 2254 1930 1736 2167 2415 2283 2160 2050 1859 1321 1271 1338 1199 1219 1542 1328 1328 1143 1531 1404 1869 1438 1940 2332 2478 2801 3769 3856 3299 4136 3419 3420 3583 3222 2979 2758 2636 2410 2669 3424 2850 3748 3379 3488 2923 2634 2442 2425 1886 1854 701 885 1182 913 626 412 650 473 860 1508 1348 475 364 788 1013 2267 1126
70 66 156 199 212 328 372 594 798 825 928 1132 1330 1652 1892 1837 2387 2513 2333 2255 1888 2215 2417 2152 2005 2014 1842 1321 1056 930 513 827 1283 1429 1531 1336 1831 2102 1888 1650 1884 1991 2608 2980 2714 3479 3357 3615 4486 3918 3581 3378 2590 2582 2361 2647 2905 3831 3678 3333 3230 3038 2641 2956 2648 2510 2047 1875 1476 2213 1529 1204 1002 889 709 1009 912 1610 1153 723 1540 1468 880 1062 1143
123 61 82 145 270 268 302 454 582 722 775 882 1051 1633 2028 1886 2181 2302 2501 2324 2239 2312 2140 2078 1897 1928 1818 1068 1062 955 667 719 1019 1384 1738 2199 2133 2270 2312 2205 1672 1765 1735 2540 3131 2861 3356 3539 3166 3030 2932 2706 2459 2473 2942 3453 3444 3168 3522 3078 4171 3727 3900 2788 2696 3091 2442 1968 2026 2262 2193 1645 1396 922 1101 770 1041 2131 1639 1159 1908 1447 2174 1994 1491
195 99 88 103 225 289 292 401 464 548 772 812 916 1380 2140 2324 2400 2212 2531 2409 2428 2555 2138 2123 1936 1954 1796 1488 1341 1318 1046 1072 1179 1197 1426 1774 1898 1824 1978 2076 1922 1459 1135 1376 2014 2300 2596 2956 2800 2594 2660 2842 2478 3055 2815 2538 2694 2323 2512 3242 3065 3159 3259 3539 3108 2281 1354 1634 1448 1212 1561 828 991 1622 1318 788 790 1305 1754 1844 619 1522 1184 1391 1860
400 228 86 87 163 301 300 384 374 495 588 595 853 1002 2004 2729 2582 2457 2474 2311 2463 2824 2235 2009 1724 1984 1842 1956 1866 1758 1571 1292 1324 1261 1564 1741 1548 1196 1241 1203 1175 1090 1215 933 1063 1408 1742 2172 2327 2560 2840 3106 3128 2681 2623 2419 2357 2404 2639 3392 3270 3277 2931 2992 2797 2872 2818 2517 2040 851 875 1019 910 1067 1178 844 1054 1650 1779 1279 1156 1019 623 742 808
711 263 141 76 98 196 303 463 398 565 616 520 510 1186 1762 2443 2871 2600 2801 2314 2362 2667 2649 2203 1770 1917 1892 1893 2008 1930 1890 1528 1632 1575 1606 1650 1193 926 1326 1397 1358 1203 852 715 884 1013 1233 1715 1972 2232 2688 3051 3377 3757 3195 3104 3062 3142 2976 2991 3033 3832 3379 3357 3232 3228 2587 2366 2423 1714 1271 1342 1059 791 617 490 764 492 1048 1195 969 804 953 924 536
822 501 205 134 93 166 355 508 557 558 595 764 886 919 1448 2094 3071 2832 3065 2654 2541 2437 2480 2361 2123 2057 2083 2176 1971 1883 1930 1677 1464 1314 1168 1192 1177 877 867 1053 1351 1078 844 732 537 692 820 1194 1662 2036 2394 2695 3263 3618 3421 3180 3454 2692 2974 3446 3079 3207 3464 3645 3147 2368 2212 1749 1654 1520 1329 1305 1244 1023 1215 1012 1098 1058 1148 867 1238 1067 1356 1076 847
1235 595 192 196 100 149 320 370 558 666 589 724 927 939 1350 1103 2831 2840 3382 2932 2640 2456 2291 2290 2350 2222 2289 2303 2090 1615 1513 1450 1182 942 968 913 722 769 856 580 570 655 608 854 682 611 579 766 1194 1473 1804 2340 2679 3350 2925 2871 3063 3197 2856 4004 3342 2990 3844 3274 3005 2609 2075 1921 2377 2360 1805 1466 1067 1018 946 1011 1131 1135 1247 1184 1856 1538 1214 1018 751
753 786 575 231 240 353 431 511 689 712 778 760 722 987 1263 1228 2164 2875 3160 3265 2959 2670 2360 2304 2305 2346 2582 2574 2170 1937 1454 1188 1275 1180 1050 861 786 625 799 883 609 640 616 830 853 845 814 740 1072 1358 1628 1887 2311 2893 3024 2844 3273 3032 3071 2903 3077 2155 2393 3287 2994 2086 1789 1644 1537 1993 1587 1257 1008 807 719 753 1301 1260 1537 1434 1306 1172 1470 2444 1668
1459 991 770 885 244 265 499 431 530 556 703 694 829 908 1246 1382 1971 2598 2945 3066 2908 2978 2449 2267 2440 2294 2488 2525 2424 2147 1640 1250 1033 1081 851 892 916 843 742 706 624 683 464 749 1183 1385 1314 1042 1041 1082 1495 1625 1872 2328 2546 2757 3274 3812 3272 3695 3120 2961 2737 3102 3365 2480 2687 2321 2169 2261 2316 2428 1930 1501 1182 913 868 954 1031 1377 1041 692 1204 2322 2147
1934 1740 1436 1485 762 296 371 587 427 585 630 619 656 940 1152 1063 1127 2456 2793 2766 2675 2590 2088 2165 2233 2118 2343 2576 2601 2368 1801 1381 994 628 717 778 994 1067 736 691 637 529 633 814 669 1269 1674 1711 1395 1197 1228 1555 1582 1630 2320 2430 2804 2827 2640 3600 3658 3595 3316 3477 2956 2757 2526 2336 2286 2143 2079 2234 2218 1924 1459 1049 1240 1451 1506 2104 1964 1593 1964 2975 3171
1798 1716 1554 1244 500 1090 484 516 538 807 786 620 690 761 962 922 1200 1566 2149 1943 2362 2299 1929 1868 2064 1977 1929 2252 2198 2231 2181 1760 1350 983 823 486 793 985 752 624 573 489 578 649 957 654 1415 1779 1659 1516 1505 1578 1767 1607 1810 2450 2650 2851 2441 2552 3035 3200 3159 3129 3074 2731 2295 1934 1789 1804 2048 2132 2476 2028 1732 1176 940 672 1254 2129 2376 1840 1554 2201 3312
1162 1578 2031 1942 1605 1089 662 682 595 1676 1610 836 340 339 507 984 995 1024 1303 956 820 1556 2017 1572 1711 1573 1792 1915 2154 2184 2170 2286 1819 1788 1598 1094 596 597 841 617 638 542 429 556 882 916 1234 1492 1643 1399 1076 1000 1359 1529 1658 2006 2780 2692 2453 2067 2200 3371 3562 3476 3064 2338 2080 2064 2436 2561 2592 2367 2128 2074 1676 1458 1326 1096 932 1179 1574 2031 2151 2713 2855
1426 1634 1658 2087 1868 1031 774 643 1184 1833 992 694 787 754 566 864 592 1258 1612 1300 777 724 1680 1696 1353 1824 1292 2164 2253 2135 2050 1917 2010 1806 1688 1719 1489 1025 1041 829 435 565 396 522 970 1267 1097 1107 1249 1364 1005 1008 1266 1296 1224 1535 2256 2480 2495 2258 2220 2962 3640 3663 3836 3345 2554 1921 1914 2137 2780 2646 2469 2238 1997 1734 1299 1001 786 1522 2032 2151 1887 1986 2302
1228 1856 1480 1955 2108 1301 1218 1225 589 630 1164 996 1584 1516 1580 1448 1038 1666 1743 1270 1075 790 1185 1526 1220 586 1291 1800 1929 2554 2200 1952 1542 1644 1769 1720 1778 1833 1770 1652 1331 1320 824 717 1272 1095 1146 959 958 954 1227 983 1154 1447 1120 1862 2401 2624 2931 2407 2038 2418 3367 3329 2964 2956 3122 2657 2283 2330 2474 2757 2425 2363 1926 1416 1110 1210 935 979 1253 1285 1393 2940 2414
1034 1414 1566 1771 1561 1278 1359 1235 1359 1182 1516 1666 1910 1718 1590 1444 1788 2048 2177 2063 1463 904 898 949 1015 995 1660 1591 1654 1848 1921 1997 1543 1217 1058 1241 1526 1784 1848 1792 1610 1689 1900 1690 1676 1689 1556 1019 1080 1014 1170 1096 1388 1148 1503 2029 2010 2466 3010 2580 2008 2271 2630 2610 2824 3105 2849 2404 2311 2446 2216 2299 2060 1587 1679 1529 1726 1667 1579 1315 912 932 1356 1663 1879
1780 1786 1533 1502 1585 1122 810 1175 1261 1209 859 921 1385 2120 2506 2644 2166 2198 2338 2416 1944 858 818 1582 2015 1814 1536 1534 1532 1543 958 1670 1595 1413 848 463 813 1066 1531 1689 1676 1651 1654 1978 1834 1779 1792 1639 1100 1413 1224 1359 1375 1140 1532 2081 2136 1988 2225 3082 2751 2599 2516 2473 2399 2266 2728 3074 2724 2790 2575 2153 2220 2083 1991 1976 2011 2278 2085 1952 1984 1937 1835 1589 1907
1663 1796 1616 1177 1068 998 730 1240 1596 1145 842 1241 1842 2016 2395 2612 2762 2706 2787 2662 2846 2736 2314 1785 1751 1721 1793 1559 1156 1202 1525 1639 1584 1451 1229 887 702 582 786 1264 1560 1544 1517 1544 1894 1942 1944 1948 1497 1710 1616 1710 1701 1482 1885 1762 1929 2087 2048 2429 2840 2935 2983 2548 2447 2429 2657 2860 2908 2476 2628 2672 2633 2342 2003 1997 1900 2006 2342 2114 1983 1880 1682 1784 2033
1566 1656 1649 1527 1173 1002 938 1158 1573 2138 1947 1290 1154 1872 2271 2448 2750 3132 2472 2492 2286 2461 2471 1856 2150 2272 2414 1730 1293 1104 1142 1294 1479 1495 1356 1111 850 345 544 740 1190 1430 1486 1336 1446 1821 1871 2159 2115 1967 1922 1911 1913 2083 1902 1960 1754 1838 2171 2557 2667 2734 2743 2888 2956 2752 2796 2812 2746 2626 2312 2549 2322 2324 2312 2334 2437 2206 2174 2308 2224 1980 2041 1889 2121
1314 1257 1307 1328 1362 1024 670 721 844 1335 1278 1356 1642 2073 2564 2346 2159 2589 3115 2684 2007 1907 1971 2058 2383 2601 3002 2291 1372 1095 1027 1124 1327 1400 1372 1302 778 810 635 620 808 1217 1258 1188 1214 1488 1827 2102 2396 2262 1466 2085 2081 2141 2293 2002 2203 2089 2002 2210 2174 2313 2357 2317 2490 2404 2397 2595 2549 2279 2364 2504 2596 2476 2438 2375 2167 2220 2031 1945 2045 1976 2031 2467 2382
910 908 1003 1053 978 810 749 939 886 903 912 1080 1019 936 1337 1602 1939 2140 2466 3030 2261 1727 1799 2053 1723 1694 2148 2769 2368 1256 1138 1322 1398 1897 1714 1549 1228 987 1159 881 772 997 1081 1017 643 958 1438 2133 1699 2083 2208 1488 1772 2368 2414 2413 2383 2284 1996 1917 1986 2120 2003 1936 1943 1656 2051 2006 2064 1883 1854 1831 1741 2233 2522 2363 2316 1841 2155 1954 1199 2842 2701 3017 2674
854 949 902 748 838 705 650 644 572 714 936 1115 1109 1170 1035 1144 1365 1570 1719 2524 2830 2449 2127 1861 1826 1704 1776 1769 2114 2567 2110 1590 1750 2015 2618 2261 1950 1812 2688 1883 1499 1471 1426 1534 950 407 1069 1287 1684 1958 2036 2211 1339 1946 2303 2634 2672 2537 2306 2200 2101 2097 2000 1962 1784 1346 1253 1285 2011 1409 1045 2293 1653 1862 1927 2533 2319 3711 3610 3249 3225 3416 4254 3434 3210
868 796 738 698 746 787 723 632 586 559 475 661 845 925 1265 1045 852 790 633 1479 1661 2737 2557 2294 1896 1920 1896 1724 1764 1458 1324 2160 2254 2574 3358 3622 2856 2563 3028 3337 2834 2597 2485 1662 1296 1450 971 888 1252 1696 1886 1779 1812 1003 1943 2077 2487 2759 2756 2254 2184 2032 1970 1838 2032 1882 1933 1671 1843 1640 1392 2200 2667 2690 2658 2634 3803 2904 3233 2684 1838 1913 4531 4125 3256
842 826 782 702 661 680 664 600 556 541 527 448 437 742 1005 1052 888 557 257 372 1545 1714 2321 2339 2077 1805 1903 1910 1639 1390 1161 1796 3506 3357 3480 3558 2863 2270 3336 4067 3985 3216 2445 2230 1914 1519 1386 913 684 1398 1410 1506 1839 2153 1855 1780 1944 1923 2630 2712 2721 2501 2399 2656 2656 3096 2857 2614 1937 1075 1074 1680 1733 2201 2768 3064 3405 3210 3061 3088 2412 2939 3866 3692 3228
769 812 833 807 764 690 744 678 545 529 541 552 493 652 758 1430 1385 1411 848 1894 1698 1888 1886 2029 2002 1625 1238 1644 1592 1291 1381 1468 2015 2514 3246 3304 3072 3147 3332 3524 3014 2427 2662 1972 1946 1977 2076 1805 1185 1422 1245 1619 1757 1352 1331 1519 1516 1714 2339 2547 2205 2364 2183 2142 2163 2207 2293 2463 1920 1125 1284 1349 1500 2295 1802 1083 1217 1554 2711 3079 3569 4103 4154 4099 3911
727 757 778 736 675 616 573 623 598 648 652 602 596 571 571 724 961 1208 753 1061 1672 1906 1794 1470 1584 1333 1343 1427 1587 1391 1258 1601 1855 1774 3313 2488 3268 3418 3269 3310 3088 2784 2367 3050 2818 2319 2332 1812 1382 1200 1137 1462 1122 766 1474 1145 1380 1251 1378 1750 1751 1774 1899 2234 2107 2050 2402 2956 2692 2693 2593 1982 2024 2584 2594 2086 1739 2211 2302 1879 2651 3740 4475 3741 3050
562 536 559 512 504 516 594 659 687 684 653 660 592 544 538 587 639 642 826 794 994 1206 1342 1322 1176 1123 1130 1212 1311 1217 1254 1377 1395 1291 1954 2796 3643 3478 3428 3172 3031 3098 2883 2704 2441 2363 2578 2354 2100 1623 1876 2049 1333 1011 784 1102 1020 1227 1369 1457 1590 1642 1549 1084 1456 2066 2522 2750 2966 2663 2582 2244 1731 2202 2460 2326 2110 2365 2202 2703 3222 3446 3318 2759 3128
53 104 263 375 351 334 406 434 497 611 666 618 581 537 465 514 552 567 618 644 651 654 685 779 838 842 929 1124 1103 931 964 1252 1126 1341 1709 1862 1845 3257 3123 2908 2939 3102 3037 2702 2392 2158 1819 1770 1518 1606 1749 1692 1147 1308 1268 978 1001 1138 1414 1406 1775 1769 2011 1722 1867 2243 2849 3045 2900 2731 2011 1863 2266 2430 3350 3899 2789 2627 2482 2197 1993 1905 2089 2157 2189
26 24 126 263 408 451 444 463 470 474 496 531 502 469 453 466 428 522 547 540 560 560 586 574 585 593 565 826 1039 999 1019 887 1095 1214 1480 1302 1550 2658 2748 3235 2245 1891 1733 1386 1198 1381 1389 1206 1482 1541 1300 1739 1419 1271 1133 1024 871 1104 1244 1234 1641 2014 2146 2424 1926 1992 2060 2397 2859 2935 2878 2500 2194 2818 3475 2252 1880 1855 1906 2134 2097 1801 1782 1881 1718
176 200 189 272 371 391 437 444 415 366 371 418 444 458 443 412 400 402 423 447 464 476 491 455 438 439 405 389 499 754 831 868 1035 1162 1273 1312 1792 1886 2365 3304 2373 1494 1433 1042 928 1076 1343 1700 2061 2050 1861 1835 1581 1313 1018 726 751 1031 1210 1303 1948 1827 2395 2111 1985 2222 2839 2869 2759 2651 2437 2783 2294 2023 2496 1912 1774 1661 1595 1761 1935 1842 1289 1489 1444
130 142 158 199 272 296 269 238 284 317 330 371 403 429 428 424 381 357 380 417 414 424 398 376 346 312 318 379 444 608 705 692 725 875 844 803 708 775 725 2006 1929 1521 1172 1173 1075 1144 1200 1290 1380 1600 1844 1578 1112 923 1100 1067 849 647 684 1133 2006 2290 2246 2523 2356 2500 2788 2624 2419 2697 2821 2593 2121 2830 1911 1726 1526 1449 1517 1651 1657 1472 1246 1066 1416
130 155 156 158 168 167 226 244 233 324 280 352 353 373 403 378 337 312 334 364 374 341 348 331 334 292 193 211 248 271 283 306 306 293 289 191 184 294 672 777 1410 1560 1187 906 822 811 1132 1209 785 916 988 847 648 832 1028 998 741 592 550 800 1344 1299 2071 2376 2188 2193 2844 2680 2575 2610 1902 2110 2234 1809 1661 1618 1514 1257 1032 914 1110 1176 1198 1136 1294
127 166 167 166 171 147 144 137 176 236 283 280 276 292 290 278 243 244 270 253 287 335 356 325 218 162 105 147 191 190 180 174 148 108 36 9 4 10 78 154 147 179 324 611 514 700 854 664 755 844 869 802 671 775 694 636 580 477 461 394 1048 1263 1232 894 981 1109 1493 2121 2809 2907 2026 958 806 686 679 769 950 985 881 704 556 773 664 567 1035
128 148 155 157 171 170 155 154 146 145 205 216 229 239 257 211 202 212 250 217 192 213 185 168 212 186 109 43 16 6 22 92 91 113 99 75 135 164 147 202 44 32 179 299 356 362 392 476 583 580 668 709 648 625 728 741 672 610 588 519 433 486 514 626 732 800 1202 1091 1076 1345 1263 846 746 746 645 611 804 1052 1077 1064 987 912 870 1208 1012
91 78 58 93 118 137 137 117 102 107 94 94 109 149 199 213 192 222 219 200 168 161 143 159 147 115 114 18 32 14 2 0 7 51 80 78 134 175 223 260 204 196 153 142 230 289 275 268 390 557 558 622 546 570 568 428 320 269 226 219 207 217 244 251 251 546 616 638 990 1044 730 548 546 536 541 669 761 862 912 890 842 761 710 637 624
57 47 0 0 41 0 22 28 88 31 29 62 66 64 58 55 42 99 132 176 201 192 164 126 0 0 0 16 30 8 0 1 4 30 48 90 80 87 132 152 164 198 210 35 9 103 127 132 130 103 100 154 176 140 169 201 222 218 205 203 197 188 195 210 200 203 219 216 192 170 212 287 300 276 226 214 214 215 209 208 217 238 251 291 297
0 0 0 0 0 0 0 0 0 0 0 21 64 76 43 18 12 17 2 0 0 0 0 0 0 0 0 0 0 7 4 0 48 51 62 49 32 6 28 68 147 195 180 130 3 165 147 163 118 134 146 158 142 129 136 148 145 150 161 166 186 211 219 223 212 213 219 193 187 188 184 168 136 130 122 126 133 134 131 127 136 153 145 116 87
0 0 0 0 0 0 0 0 0 0 0 0 17 78 67 26 3 9 2 0 0 0 0 0 0 0 0 0 0 0 0 0 0 11 28 41 16 3 12 38 33 119 124 106 86 0 1 24 28 72 89 98 111 113 130 146 156 182 196 211 227 243 244 256 262 264 252 245 238 219 197 175 133 80 55 44 56 64 73 29 0 19 74 46 14
0 0 0 0 0 0 0 0 0 0 0 0 0 2 39 60 16 2 27 14 0 0 0 0 0 0 0 0 0 0 0 0 0 0 0 0 11 10 8 11 6 4 8 4 56 48 13 56 58 77 76 75 75 54 88 105 121 120 126 150 163 165 178 190 194 179 192 194 186 179 154 118 82 79 86 68 56 28 0 0 0 7 34 21 2
7 6 8 2 1 1 0 0 0 0 0 0 0 0 2 32 38 10 23 68 41 3 0 0 0 0 0 0 0 0 0 0 0 0 0 0 0 0 0 1 2 2 1 1 1 3 2 11 37 51 69 72 82 79 64 73 42 17 54 76 103 110 128 139 141 107 101 103 98 93 61 39 35 7 37 12 48 41 12 8 8 21 40 59 61
150 106 70 69 70 67 70 32 2 0 0 0 0 0 0 8 31 62 88 52 24 29 0 0 0 0 0 0 0 0 0 0 0 0 0 0 0 0 0 0 0 0 0 0 0 15 29 32 41 37 39 39 23 32 39 30 57 68 64 68 77 88 94 101 102 0 40 86 86 60 47 46 46 73 108 156 52 47 12 6 10 13 23 32 78
302 254 238 238 211 180 172 175 116 60 2 0 0 0 0 0 6 86 137 102 90 23 2 1 0 0 0 0 0 0 0 0 0 0 0 0 0 0 0 0 0 0 0 0 0 0 0 0 0 0 1 32 34 1 29 33 50 51 63 79 76 67 77 93 91 66 78 79 63 0 31 47 195 120 82 64 49 29 12 5 4 3 5 6 22
268 297 277 311 289 239 249 267 222 167 145 56 8 0 0 0 0 0 4 56 78 56 0 0 0 0 0 0 0 0 0 0 0 0 0 0 0 0 0 0 0 0 0 0 0 0 0 0 0 0 0 0 0 0 0 0 0 16 24 55 70 72 78 95 79 56 53 55 47 38 42 17 30 94 64 36 22 26 5 5 3 2 4 5 9
273 240 151 127 262 350 332 315 267 225 167 136 52 22 7 0 0 0 0 0 0 0 0 0 0 0 0 0 0 0 0 0 0 0 0 0 0 0 0 0 0 0 0 0 0 0 0 0 0 0 0 0 0 0 0 0 0 0 0 0 20 52 59 65 58 47 0 2 15 19 6 11 9 28 26 0 8 3 4 4 3 3 2 0 4
Wind_Speed
9 9 10 11 11 8 7 5 5 6 5 6 5 5 5 5 6 5 4 5 4 3 2 2 3 4 5 6 6 6 8 8 9 10 10 10 8 8 9 8 8 8 8 11 14 15 17 16 13 13 12 11 10 10 10 10 6 8 6 7 8 8 8 9 10 11 12 8 nan 11 4 3 1 7 7 7 7 6 8 7 7 10 11 12 12
9 9 10 12 10 10 8 5 5 5 5 6 5 6 6 7 7 6 4 4 4 3 1 2 2 5 6 6 6 6 7 9 9 10 10 8 8 9 10 9 8 9 10 11 13 14 15 13 12 12 11 10 10 9 8 6 6 7 8 6 7 7 8 11 12 11 6 6 8 4 4 2 2 4 4 7 6 6 8 9 8 8 11 15 13
8 9 10 11 12 12 9 6 5 5 6 6 5 5 6 6 6 6 5 4 3 2 1 2 3 5 7 7 7 7 7 9 9 9 9 8 8 8 9 9 8 9 10 12 13 14 13 13 11 9 9 7 6 5 3 4 4 6 6 8 10 7 6 5 6 7 11 7 6 9 nan 2 nan 6 7 2 6 5 6 9 10 12 13 12 13
8 8 10 11 12 11 10 8 7 6 5 4 5 5 4 4 5 6 5 4 2 1 1 0 2 4 8 7 9 8 8 9 8 9 8 7 8 7 9 8 9 10 10 11 12 12 11 10 9 8 7 6 6 6 5 3 3 5 6 6 7 9 7 6 6 6 9 9 7 4 2 nan 1 3 4 4 7 4 6 6 11 10 12 12 11
9 7 8 9 12 11 11 10 8 7 4 4 4 4 2 5 5 6 5 3 1 2 1 1 2 3 6 7 8 8 8 9 9 9 9 8 8 8 8 8 11 11 10 11 11 10 9 9 9 7 7 6 5 3 4 3 3 3 5 7 7 9 12 10 10 6 5 8 5 6 5 nan 4 1 5 3 5 5 4 5 1 nan nan 10 9
9 9 7 9 9 13 11 11 10 8 6 5 3 4 4 5 6 5 4 2 1 3 1 2 1 2 3 4 5 6 7 8 9 8 7 8 8 8 7 8 9 10 10 10 9 8 8 8 8 7 5 5 5 7 6 5 2 5 0 5 5 6 10 6 8 2 3 3 3 2 5 5 3 4 7 3 7 6 nan 11 12 12 10 2 8
nan 10 7 9 10 12 12 11 11 9 8 7 4 4 5 6 6 5 3 2 2 3 2 2 2 2 2 3 4 5 6 7 8 9 7 7 9 6 8 7 7 9 8 9 8 8 8 7 7 6 6 6 4 4 3 3 1 2 4 5 6 8 6 9 8 13 7 6 4 5 2 7 4 3 5 3 6 6 5 5 2 4 6 9 6
12 10 8 8 11 11 11 12 10 11 10 10 7 6 5 6 7 5 3 2 1 3 2 2 3 3 2 3 4 5 5 6 6 7 7 7 8 7 6 6 6 8 8 6 7 6 7 6 7 7 6 6 5 4 4 4 6 5 4 6 6 5 8 8 10 8 6 5 4 5 5 7 8 9 10 4 2 3 2 2 3 5 3 1 4
nan nan 11 8 10 11 11 11 10 11 12 11 9 9 6 6 7 6 5 3 2 4 2 2 3 3 3 3 4 4 3 4 5 6 6 6 6 6 6 5 5 6 7 5 5 5 5 6 5 6 5 5 4 3 2 3 2 4 3 3 3 4 6 7 8 9 7 10 5 4 6 4 4 1 3 5 7 3 2 1 4 1 2 3 6
10 nan nan 11 10 10 10 11 10 9 12 12 10 11 9 8 7 7 6 4 4 5 2 3 2 4 3 3 3 4 4 5 5 5 6 5 5 5 6 7 5 4 4 6 4 4 4 5 4 3 3 3 4 5 5 5 3 2 3 3 6 7 8 7 6 6 8 7 8 5 2 5 5 5 3 7 6 3 2 2 3 5 2 3 7
10 nan nan 12 11 10 10 9 11 10 11 12 10 10 11 9 8 8 8 5 7 6 4 3 3 3 4 3 3 3 3 4 4 3 4 4 4 3 4 5 6 4 3 2 3 4 3 4 4 4 4 4 4 3 1 1 0 1 2 3 4 5 5 6 7 7 7 6 8 6 5 5 4 3 3 2 1 3 3 2 2 6 6 7 8
10 10 nan nan 13 10 9 9 11 11 12 11 10 12 9 11 10 9 8 6 8 7 5 5 4 3 3 3 3 3 3 4 2 2 3 2 2 3 3 3 4 4 4 3 1 1 2 3 3 3 4 3 2 3 3 4 4 2 2 3 2 2 4 5 7 8 8 6 6 7 5 5 5 6 5 2 3 4 2 3 3 1 7 7 5
10 10 12 nan nan 12 10 10 11 12 11 13 8 12 13 10 12 10 9 8 8 8 7 6 5 5 4 4 4 4 4 4 3 3 3 3 3 3 4 3 3 3 3 3 2 1 2 1 2 3 3 3 5 6 4 4 6 6 4 3 3 3 3 2 3 4 5 6 7 7 5 7 4 5 6 4 4 5 5 5 6 6 6 4 6
15 12 11 13 nan 13 12 11 13 13 11 11 13 12 13 11 13 10 10 10 9 8 8 7 6 6 6 5 5 5 4 3 3 3 3 4 4 3 2 2 2 1 1 2 2 1 0 2 1 2 3 3 3 3 4 3 3 3 4 4 4 1 2 3 3 5 5 5 5 5 7 7 8 8 8 7 7 6 6 6 5 4 4 4 2
16 12 8 13 nan 14 15 13 14 14 12 14 13 13 16 11 13 13 11 10 10 8 8 7 7 6 7 6 7 6 5 4 4 4 4 4 4 4 4 3 2 2 3 3 2 4 1 2 4 2 3 3 3 2 2 2 3 3 3 4 5 3 2 2 3 4 5 6 6 7 6 7 9 9 7 7 6 6 5 1 3 4 5 4 5
17 19 15 12 14 14 16 16 16 15 14 15 15 15 14 14 14 14 12 11 11 10 8 8 7 7 7 7 7 7 7 6 6 6 6 5 5 4 4 5 6 5 4 4 3 2 3 3 4 3 3 3 3 2 2 3 3 2 3 2 3 3 2 1 1 4 5 6 7 8 7 8 7 7 7 5 5 5 5 2 4 5 5 4 5
21 30 32 24 13 14 16 17 16 15 15 16 16 16 17 17 17 13 14 12 11 11 9 9 8 8 7 7 7 8 6 5 6 4 3 5 6 5 5 4 5 7 6 5 4 4 4 3 3 2 5 3 3 3 2 2 3 3 2 2 4 5 3 3 4 5 6 8 7 6 4 3 3 3 3 3 2 1 3 5 5 4 2 3 5
15 23 22 22 21 12 15 17 16 14 15 17 16 18 20 17 15 15 15 13 11 11 10 10 10 9 9 8 7 7 7 6 6 6 5 6 5 6 5 6 5 5 6 6 5 5 5 4 4 4 4 3 3 3 3 3 3 2 1 1 3 4 4 4 4 6 6 6 5 5 3 3 2 2 0 0 1 1 1 2 4 4 3 2 2
17 23 21 21 30 30 17 17 18 17 16 17 17 19 19 18 16 16 14 11 11 12 11 12 12 11 11 10 8 8 7 7 7 8 8 6 5 6 5 6 6 6 7 6 7 6 7 6 5 4 4 3 3 2 3 3 3 3 1 1 0 1 3 4 4 4 5 5 4 4 3 2 2 2 2 1 1 1 1 1 1 2 1 2 1
14 19 22 24 28 32 34 23 21 33 27 18 18 16 17 17 16 15 16 12 12 11 14 13 12 11 12 13 11 10 9 8 8 8 8 8 6 6 7 6 6 8 7 7 6 6 7 7 6 3 3 3 3 2 2 4 4 3 3 2 2 4 1 2 2 3 3 3 3 2 2 3 3 3 2 2 1 2 1 1 2 2 3 5 4
13 17 17 17 21 27 28 30 31 27 23 19 18 22 18 18 14 16 18 16 15 15 19 14 13 14 13 14 12 11 9 9 8 8 8 8 9 8 8 8 9 8 8 8 7 6 6 7 5 6 4 5 5 5 5 5 6 5 4 4 5 7 6 4 4 3 2 3 4 3 3 3 3 2 2 2 1 0 1 1 2 2 3 3 3
17 17 16 16 15 19 34 39 33 31 29 25 27 27 22 20 17 21 19 17 16 16 18 19 17 15 10 16 13 15 12 10 9 9 8 9 9 10 9 9 8 9 9 8 9 8 8 6 6 6 6 6 7 7 5 6 7 7 6 7 7 6 5 5 5 4 5 4 5 4 2 2 3 2 2 2 1 1 0 1 2 3 2 6 8
25 23 19 19 17 18 23 33 40 38 35 33 33 32 28 24 25 22 21 18 18 15 16 20 18 16 15 17 15 15 14 12 11 10 9 9 10 10 11 10 10 10 11 10 9 9 9 9 7 8 8 7 8 8 7 7 8 8 8 7 8 8 7 6 4 5 5 5 3 3 2 2 2 2 3 3 2 1 1 1 1 0 1 2 5
29 28 25 23 22 20 20 24 33 37 36 33 34 36 34 27 25 22 20 19 18 15 17 21 21 20 18 16 16 17 13 14 13 13 11 10 12 12 11 11 11 11 11 12 10 9 10 11 9 9 9 9 8 8 7 7 8 8 8 8 8 8 7 8 6 4 4 6 4 3 3 3 2 3 4 3 3 3 2 1 1 2 2 2 2
29 29 29 28 26 24 22 22 27 34 36 35 37 36 32 26 28 25 23 22 20 20 21 20 21 21 19 17 16 17 17 16 15 16 14 13 13 12 12 11 12 11 11 12 14 11 11 12 10 10 9 9 9 9 8 7 8 9 8 7 8 8 8 6 6 6 6 6 5 4 4 5 5 4 4 4 4 3 4 3 3 4 3 3 5
30 28 28 31 30 29 27 23 22 29 37 36 34 37 34 31 30 30 32 34 34 30 24 18 21 21 20 18 16 16 17 17 16 15 15 16 15 14 13 13 12 12 12 11 12 14 12 11 11 10 10 11 10 10 9 9 8 8 9 9 9 8 8 8 7 7 6 6 6 5 4 5 5 4 4 4 6 4 4 3 3 4 5 5 5
29 29 29 30 33 33 31 28 23 22 30 39 40 40 41 37 33 33 35 34 30 28 28 27 26 21 19 18 16 16 17 17 19 17 16 17 17 16 15 13 15 14 12 12 11 11 12 12 13 11 8 10 12 11 11 10 10 10 9 9 9 8 8 8 8 7 8 6 7 6 6 5 6 6 5 5 5 6 6 3 6 4 7 8 8
28 29 32 33 34 35 35 33 29 23 23 28 33 37 38 40 41 38 36 34 32 29 28 27 26 24 23 18 17 16 17 19 20 21 18 17 17 17 17 16 15 13 13 12 10 11 10 20 14 12 10 10 12 12 12 11 11 11 11 10 10 9 8 10 10 9 7 7 6 7 8 10 5 7 8 8 8 7 9 11 10 12 16 15 13
30 30 31 32 33 34 35 32 31 28 27 25 24 25 27 31 38 41 39 35 33 31 30 29 28 25 24 24 25 26 23 22 22 22 21 20 19 21 30 26 27 25 24 22 16 10 10 12 15 13 12 15 11 12 13 13 13 12 12 11 11 10 10 10 10 8 8 8 10 8 7 19 11 14 6 8 9 17 19 16 16 14 17 18 16
30 29 31 32 32 33 34 32 29 29 29 28 25 22 21 21 27 36 41 38 34 33 31 32 30 28 28 27 26 26 25 21 20 25 25 24 22 20 25 29 28 25 24 22 20 17 11 10 11 13 13 15 16 14 14 15 14 16 14 14 13 14 16 16 14 14 13 11 12 11 11 14 12 14 13 11 15 16 16 15 14 16 17 17 18
34 32 33 33 32 34 34 31 28 27 29 30 28 26 23 22 22 29 36 37 37 32 32 34 33 32 31 30 30 29 26 24 23 25 24 23 21 22 26 28 27 25 24 22 20 18 16 12 11 13 15 16 20 20 18 18 19 16 16 16 17 18 20 20 17 18 18 16 13 13 15 23 24 17 19 21 16 17 16 16 16 16 16 15 15
37 37 36 34 34 34 32 30 29 28 28 29 30 28 26 25 24 28 36 44 42 39 35 34 35 37 35 33 31 30 29 28 27 24 24 23 23 24 26 26 24 25 26 23 19 22 21 20 19 19 17 19 22 37 42 40 37 29 21 17 18 20 21 21 21 20 21 22 23 19 18 20 21 28 28 25 22 18 16 18 17 19 20 17 15
36 38 37 35 33 31 30 30 29 27 26 26 28 29 29 27 26 28 35 49 51 46 42 38 38 39 37 35 31 29 31 32 29 24 25 25 25 26 27 28 26 26 27 26 24 24 25 26 28 28 29 30 31 39 40 33 30 26 31 29 20 20 18 20 23 25 22 24 23 24 27 27 25 25 30 26 23 18 23 16 12 16 19 18 17
39 37 40 39 34 31 30 29 28 26 25 24 25 28 29 29 29 27 30 46 56 52 47 46 43 40 37 34 32 31 29 30 30 28 28 28 30 31 31 31 29 29 28 27 27 29 29 30 31 30 30 32 32 37 36 40 39 35 29 31 25 23 23 27 22 24 25 26 27 30 28 25 24 25 28 28 26 22 23 24 21 20 19 17 16
nan 35 37 39 36 33 31 29 27 26 23 22 23 25 27 29 30 28 25 33 51 55 51 47 46 43 40 38 37 39 34 30 30 30 29 29 31 33 35 33 32 32 31 30 30 32 33 32 32 32 32 33 40 38 41 41 38 33 32 35 29 28 30 30 29 27 27 25 26 28 29 26 26 25 26 31 32 29 28 27 26 22 19 18 17
nan nan 26 30 32 32 29 26 24 24 22 21 22 22 24 27 30 31 28 27 35 44 49 47 45 44 43 45 46 42 35 31 33 31 32 32 28 34 35 35 33 32 33 33 33 34 34 34 33 34 34 34 43 49 48 43 39 36 36 34 32 30 31 32 28 27 26 26 26 29 30 30 27 26 27 34 35 33 31 27 25 24 23 19 19
38 33 25 24 27 28 25 23 22 21 21 21 18 19 22 23 26 30 32 30 29 29 32 36 36 34 35 38 43 46 47 45 44 42 36 32 34 36 36 39 36 35 34 35 35 35 36 37 37 39 39 38 46 49 51 49 47 45 39 35 34 33 35 33 30 27 29 29 30 30 29 30 30 27 31 35 36 37 33 28 25 22 20 17 17
34 29 26 25 26 25 24 22 21 20 20 19 20 20 20 21 23 25 29 32 32 28 24 24 25 25 25 26 28 33 39 44 49 53 51 45 42 40 34 37 37 35 33 34 37 40 41 41 40 43 47 49 50 52 53 53 53 51 45 41 38 39 39 38 34 32 33 33 32 32 32 33 32 35 43 38 37 38 35 31 28 22 19 18 19
31 30 28 28 26 24 22 22 22 22 20 20 19 19 20 21 21 23 25 28 31 31 28 25 24 24 24 22 22 25 28 31 36 44 50 51 48 48 47 42 38 38 43 46 47 46 48 49 49 48 50 53 54 54 56 57 58 57 52 45 42 40 41 40 38 34 36 38 38 38 38 37 38 43 43 39 39 36 32 30 27 26 21 20 19
31 30 28 27 25 24 26 25 24 23 22 22 20 19 20 21 21 22 24 26 28 29 28 27 25 24 25 28 28 28 26 25 25 28 nan nan nan nan nan 44 41 36 32 43 49 50 50 54 54 56 60 59 56 54 56 62 65 62 56 47 44 42 41 41 38 36 33 37 40 41 44 49 50 50 48 46 44 42 36 31 30 27 22 18 24
33 31 29 27 28 29 27 27 25 24 24 23 22 21 22 22 22 22 24 25 25 26 28 28 27 26 27 nan nan nan nan nan nan 23 nan nan 31 28 28 31 nan nan 20 23 33 39 47 54 55 56 58 59 60 59 59 65 68 66 62 55 46 48 47 44 43 40 38 37 37 39 46 51 48 47 46 46 44 41 38 34 32 30 27 29 31
nan nan nan nan 30 29 29 29 28 27 nan nan 25 24 22 22 23 24 24 24 24 25 27 29 30 29 29 nan nan nan nan nan nan nan nan nan 30 29 28 29 31 27 21 22 24 24 26 32 39 43 47 50 55 59 55 61 66 65 64 62 53 51 48 44 42 41 40 39 41 41 47 47 46 46 46 45 42 40 37 34 31 28 27 28 30
nan nan nan nan nan nan nan nan nan nan nan nan nan nan nan nan nan nan 24 23 24 24 27 29 nan nan nan nan nan nan nan nan nan nan nan nan nan nan 33 33 33 34 32 nan nan 25 24 25 29 32 nan 39 42 44 50 53 59 62 61 62 58 52 47 46 46 45 44 42 43 43 47 48 46 44 43 43 40 37 36 36 33 31 28 27 29
nan nan nan nan nan nan nan nan nan nan nan nan nan nan nan nan nan nan nan nan nan nan nan nan nan nan nan nan nan nan nan nan nan nan nan nan nan nan nan nan 36 35 33 31 nan 29 29 30 30 29 28 30 34 39 44 47 48 52 55 57 57 53 49 47 45 44 44 44 43 46 45 43 39 39 39 39 38 36 36 32 31 29 29 29 nan
nan nan nan nan nan nan nan nan nan nan nan nan nan nan nan nan nan nan nan nan nan nan nan nan nan nan nan nan nan nan nan nan nan nan nan nan nan nan nan nan nan 33 33 33 nan nan nan nan nan nan nan nan 26 33 39 39 42 44 45 47 47 45 42 43 45 46 46 46 45 42 41 39 38 nan nan nan nan nan nan nan nan nan nan nan nan
nan nan nan nan nan nan nan nan nan nan nan nan nan nan nan nan nan nan nan nan nan nan nan nan nan nan nan nan nan nan nan nan nan nan nan nan nan nan nan nan nan nan nan nan nan nan nan nan nan nan nan nan nan nan nan 35 38 39 39 41 41 39 38 38 40 41 40 39 39 39 40 39 nan nan nan nan nan nan nan nan nan nan nan nan nan
nan nan nan nan nan nan nan nan nan nan nan nan nan nan nan nan nan nan nan nan nan nan nan nan nan nan nan nan nan nan nan nan nan nan nan nan nan nan nan nan nan nan nan nan nan nan nan nan nan nan nan nan nan nan nan nan nan nan nan nan 35 36 35 35 36 40 42 43 nan nan nan nan nan nan nan nan nan nan nan nan nan nan nan nan nan
33 34 nan nan nan nan nan nan nan nan nan nan nan nan nan nan nan nan nan nan nan nan nan nan nan nan nan nan nan nan nan nan nan nan nan nan nan nan nan nan nan nan nan nan nan nan nan nan nan nan nan nan nan nan nan nan nan nan nan nan nan nan nan 26 26 nan nan nan nan nan nan nan nan nan 45 49 nan nan nan nan nan nan nan nan nan
28 31 32 34 35 35 34 34 33 nan nan nan nan nan nan nan nan nan 28 30 nan nan nan nan nan nan nan nan nan nan nan nan nan nan nan nan nan nan nan nan nan nan nan nan nan nan nan nan nan nan nan nan nan nan nan nan nan nan nan nan nan nan nan nan nan nan nan nan nan nan nan nan 36 41 nan nan nan nan nan nan nan nan nan nan nan
22 23 27 30 31 31 31 31 30 29 29 nan nan nan nan nan nan nan nan nan nan nan nan nan nan nan nan nan nan nan nan nan nan nan nan nan nan nan nan nan nan nan nan nan nan nan nan nan nan nan nan nan nan nan nan nan nan nan nan nan nan nan nan nan nan nan nan nan nan nan nan nan nan nan nan nan nan nan nan nan nan nan nan nan nan
16 17 19 22 24 26 27 27 26 26 27 28 nan nan nan nan nan nan nan nan nan nan nan nan nan nan nan nan nan nan nan nan nan nan nan nan nan nan nan nan nan nan nan nan nan nan nan nan nan nan nan nan nan nan nan nan nan nan nan nan nan nan nan nan nan nan nan nan nan nan nan nan nan nan nan nan nan nan nan nan nan nan nan nan nan
Wind_Direction
299 313 317 314 315 319 318 348 352 349 347 324 352 351 346 352 329 349 348 342 342 349 26 44 75 92 101 94 104 116 125 127 128 137 144 159 161 159 151 167 160 164 158 158 152 157 154 160 156 149 148 156 144 148 161 174 179 156 174 142 150 178 186 174 208 172 175 179 nan 142 171 153 146 108 77 62 22 30 3 14 37 352 3 8 360
296 300 315 314 317 321 315 332 334 341 348 341 2 351 355 353 342 347 352 354 358 355 69 104 109 108 97 93 99 109 119 116 128 131 144 165 159 170 147 174 168 163 159 155 154 152 150 154 156 153 153 159 154 154 163 152 155 139 153 150 131 191 177 187 205 177 136 145 156 122 111 128 71 75 47 69 39 26 6 14 4 29 11 3 12
285 299 313 310 315 320 308 314 321 336 352 354 357 349 356 348 351 348 349 5 4 349 61 160 111 103 103 110 103 105 104 116 127 140 149 155 156 155 156 176 160 158 156 152 153 149 154 159 156 160 153 158 147 136 132 152 134 144 127 150 169 153 175 204 193 177 157 169 186 146 nan 86 nan 99 80 84 97 355 31 10 13 13 14 5 8
302 302 314 313 309 312 309 312 316 322 352 347 360 347 356 344 352 1 344 13 357 309 77 266 129 123 130 115 127 114 114 124 131 138 142 153 143 149 164 158 145 152 149 148 150 155 156 155 156 164 160 160 157 161 143 140 160 119 136 162 144 153 118 201 170 196 165 182 159 120 78 nan 298 87 71 24 40 35 57 51 8 23 22 8 7
288 297 306 309 306 313 314 308 314 317 345 333 0 347 354 340 349 358 350 9 358 277 126 232 208 131 138 149 139 135 125 122 121 123 134 142 136 140 154 148 141 147 150 147 151 163 154 156 162 167 170 158 158 160 131 111 118 146 168 144 146 182 152 190 160 171 222 178 163 174 134 nan 115 187 78 360 85 86 32 65 224 nan nan 18 23
288 300 303 297 305 305 309 311 314 310 323 317 353 338 340 331 336 352 350 2 335 289 230 205 199 135 128 132 120 120 122 115 117 116 124 127 125 137 152 141 142 145 152 149 153 159 151 157 160 164 170 177 158 162 178 185 133 107 204 125 176 174 160 181 113 125 179 233 145 24 125 162 189 128 113 222 118 133 nan 194 178 158 138 149 23
nan 282 289 297 299 299 309 313 313 314 314 303 316 312 332 315 323 341 330 346 314 292 260 203 205 159 129 118 127 126 127 131 132 133 141 136 139 146 147 145 147 144 153 149 166 162 159 164 167 163 172 177 170 172 159 117 17 125 193 165 164 185 148 145 180 139 180 126 116 175 130 102 129 116 102 164 203 161 181 148 99 158 163 200 147
278 281 287 287 290 294 306 307 312 308 305 303 302 292 309 310 317 323 298 318 319 285 275 219 212 183 176 156 147 149 137 141 145 140 150 150 160 147 159 152 151 150 148 159 161 166 158 170 171 167 177 175 176 170 174 173 201 207 182 177 171 162 153 139 159 130 147 124 183 161 156 154 150 154 154 143 357 261 194 180 229 117 214 121 137
nan nan 284 280 278 285 296 298 304 309 302 302 297 287 291 303 309 309 294 295 292 300 285 253 212 201 202 188 177 166 147 145 158 153 166 168 169 166 167 163 172 152 152 166 155 166 172 167 176 175 180 185 171 187 189 228 200 205 177 172 150 140 136 163 146 143 156 143 182 140 164 128 115 276 79 188 166 277 209 48 293 200 230 230 96
253 nan nan 272 273 277 285 291 298 300 295 294 297 291 293 294 306 311 297 283 274 298 289 275 236 216 198 183 204 183 167 196 169 176 177 186 184 181 183 176 179 169 166 158 181 172 170 176 174 177 182 184 180 202 204 228 216 176 150 149 187 172 171 142 126 131 135 129 146 146 145 127 128 140 234 283 264 53 297 175 277 318 321 14 57
233 nan nan 269 268 274 275 291 288 291 287 295 295 278 290 295 302 310 301 276 278 288 295 292 259 234 206 204 201 193 180 211 193 191 192 204 189 197 210 190 176 202 181 208 160 173 180 171 167 191 174 205 186 190 173 135 28 87 136 228 167 161 157 152 149 125 117 125 116 108 103 95 83 78 142 142 63 333 20 283 358 340 32 61 58
224 241 nan nan 274 277 273 273 283 284 285 280 288 288 285 287 295 302 297 289 281 281 289 284 268 251 233 222 208 196 194 208 209 217 223 223 211 211 215 218 191 193 190 227 225 170 201 173 163 177 185 188 193 154 164 160 138 170 184 191 159 153 163 154 146 151 143 133 119 114 112 116 139 139 140 169 123 161 201 256 105 10 88 54 51
240 222 243 nan nan 274 270 266 268 270 270 286 283 279 270 280 291 299 297 292 283 286 285 285 274 267 247 247 231 214 205 195 208 213 219 221 218 227 219 209 221 190 203 184 234 142 244 218 162 183 204 186 185 193 180 182 169 160 181 147 145 168 157 155 135 119 122 140 154 169 148 133 140 140 143 127 140 136 124 39 41 20 38 68 68
204 216 232 255 nan 269 269 262 262 261 266 261 266 266 270 264 279 285 290 286 278 281 284 282 280 267 261 249 247 235 231 214 213 206 214 214 209 202 225 219 208 181 182 209 182 297 206 291 263 202 199 201 204 197 183 189 195 159 155 151 130 143 155 167 142 117 122 120 120 125 139 152 145 148 155 145 129 122 116 147 156 129 126 105 76
205 232 233 247 nan 263 264 265 260 258 260 262 254 261 263 263 269 275 277 282 279 277 277 283 274 273 265 258 251 243 242 228 219 208 222 226 220 214 187 196 208 203 175 226 197 181 210 254 272 252 262 235 229 216 216 221 207 188 164 157 152 152 162 161 146 122 121 134 137 135 144 141 153 150 138 137 135 123 116 39 5 102 122 125 123
245 248 214 238 250 256 257 260 260 255 257 256 262 257 254 261 271 273 274 278 276 275 272 275 272 265 271 268 262 255 243 236 231 213 203 221 235 213 230 185 187 218 219 219 244 207 198 215 258 263 258 269 266 248 208 223 241 193 185 162 132 137 148 64 115 116 115 119 130 141 149 147 149 136 149 138 128 144 156 125 129 132 129 150 127
224 224 214 192 234 242 249 257 259 258 257 256 255 258 258 254 258 268 272 269 275 277 272 273 270 270 278 273 266 266 263 259 253 256 228 226 231 230 231 233 205 199 233 235 225 249 219 216 220 239 284 264 273 279 261 253 239 226 205 170 138 141 156 156 146 150 147 140 141 138 150 153 152 165 141 129 124 148 127 142 131 121 122 85 102
252 238 239 197 190 235 235 246 253 256 256 258 255 253 255 254 260 268 270 273 276 281 280 269 272 271 268 272 269 262 264 266 255 262 251 237 234 235 219 244 240 232 220 234 250 250 245 226 211 202 218 274 277 287 301 289 285 252 244 186 150 147 159 162 153 150 148 143 142 144 168 183 204 205 221 146 211 238 108 128 195 165 134 75 80
255 245 237 235 218 197 215 230 240 246 250 254 254 252 250 255 255 263 265 265 265 257 259 259 266 257 254 261 268 260 255 258 248 251 258 259 262 264 247 239 258 246 248 220 226 245 252 252 227 220 214 220 263 263 276 278 298 294 280 283 271 184 158 163 162 151 150 153 155 164 200 225 246 228 227 210 261 234 178 146 43 73 68 123 151
265 257 247 247 242 218 195 200 225 225 212 220 256 252 252 253 259 257 265 267 270 260 255 262 263 253 254 260 256 253 253 247 256 258 261 267 265 261 271 255 251 257 254 257 238 230 251 262 267 244 222 245 252 269 281 290 289 286 282 289 285 298 268 191 182 171 178 204 220 237 278 280 264 273 275 255 296 341 349 89 139 161 193 222 208
261 262 244 248 248 238 226 213 218 235 237 199 229 252 248 244 237 252 250 254 262 266 262 253 252 253 257 263 264 266 267 259 259 267 263 266 268 265 264 263 261 256 256 266 262 250 243 252 253 256 240 233 245 237 247 249 265 272 261 251 234 261 285 265 226 200 226 234 238 239 244 252 264 281 291 306 332 37 336 5 344 355 24 13 311
255 268 245 244 240 222 224 222 219 220 216 216 233 232 241 252 248 246 248 247 250 252 265 257 249 247 246 258 259 253 254 257 265 264 268 270 270 271 270 269 270 270 264 259 266 264 261 252 249 247 241 241 252 253 241 251 258 262 267 265 272 270 260 272 276 254 268 258 251 260 264 253 301 316 313 353 320 350 345 347 356 358 17 300 294
252 257 263 251 246 239 231 223 220 224 224 221 224 231 225 228 237 239 242 245 251 243 245 258 254 257 257 250 247 259 261 267 262 259 269 271 273 273 276 276 271 268 273 267 268 268 263 265 252 243 251 238 241 261 260 252 252 259 261 254 256 272 279 266 262 284 273 278 289 269 263 292 275 298 313 320 316 300 297 184 125 165 208 253 302
253 257 257 254 255 251 242 231 227 232 229 224 228 228 223 223 240 245 245 247 250 239 245 253 250 249 250 251 252 250 254 262 262 261 264 268 267 268 267 276 277 272 271 278 276 276 274 266 266 255 249 252 251 255 255 259 260 257 253 257 252 251 257 271 279 256 266 272 285 286 279 275 267 265 274 269 277 269 262 290 335 321 329 353 268
252 256 256 255 255 259 259 248 241 237 235 233 229 227 233 231 233 241 244 246 243 241 237 246 259 256 248 248 251 253 251 251 257 260 268 269 270 271 271 273 275 274 276 276 284 280 275 277 279 279 269 262 258 257 258 247 249 259 262 259 260 261 259 253 250 246 243 245 247 268 273 272 285 284 274 295 300 332 315 321 342 313 311 317 316
244 253 256 256 257 258 260 260 253 244 237 232 223 222 226 228 233 233 236 235 228 222 229 242 253 257 255 252 245 247 260 260 254 252 261 268 272 272 268 271 273 275 275 275 276 283 283 288 285 285 283 277 268 258 254 250 246 247 255 259 262 259 261 263 261 262 272 267 257 262 282 275 275 285 277 282 288 299 314 308 328 315 302 273 258
246 249 253 256 259 265 269 268 260 252 239 231 228 225 225 228 232 234 235 241 247 253 244 228 225 241 261 256 248 245 240 250 260 256 253 260 264 267 271 265 267 270 274 276 274 272 280 289 286 282 288 284 279 273 261 261 253 246 244 249 252 260 266 265 269 268 261 262 273 275 263 286 278 278 281 275 281 294 289 297 253 255 266 255 256
249 251 253 256 257 259 263 264 260 253 242 235 234 231 228 229 231 233 235 239 244 241 235 244 254 242 225 236 251 250 251 244 243 252 254 256 260 263 264 262 258 267 272 271 265 270 272 267 258 255 260 278 281 276 274 265 260 259 258 258 253 250 253 253 246 252 257 265 271 272 285 270 264 268 286 286 260 264 270 263 268 258 258 263 265
247 253 256 258 259 261 267 272 272 264 253 245 242 239 236 237 235 231 231 235 240 243 242 240 238 239 249 237 219 221 226 236 248 246 250 253 255 259 251 251 250 244 239 230 229 241 261 275 285 288 285 268 269 276 270 268 265 262 254 250 255 255 254 259 267 251 245 241 250 249 246 265 245 269 234 257 281 261 259 260 260 255 260 264 268
242 251 258 260 262 264 267 272 274 272 269 262 258 254 254 251 241 233 226 225 231 238 241 240 238 237 232 232 239 231 213 226 245 249 249 248 251 251 249 254 252 247 245 247 243 224 224 254 261 264 266 267 265 260 265 276 268 263 262 253 254 251 241 234 233 242 243 241 230 232 236 270 292 263 260 249 262 261 266 252 250 253 267 269 270
240 247 254 259 261 263 265 267 268 270 270 269 265 261 258 262 261 243 231 224 223 228 235 235 235 237 233 231 233 235 230 216 240 254 249 247 247 246 248 250 254 254 252 246 240 249 245 236 256 261 258 261 257 248 237 273 281 264 250 262 263 258 257 247 243 246 245 241 238 226 234 237 236 236 240 231 242 281 283 280 273 272 269 270 267
237 243 247 251 253 254 257 260 260 261 264 266 265 262 260 257 258 253 239 230 227 225 227 233 234 234 235 234 235 238 235 232 221 230 249 252 250 249 248 248 249 253 252 249 248 253 256 251 245 240 249 250 250 242 239 231 224 226 238 252 259 259 263 266 257 249 247 242 239 240 242 243 247 249 246 240 231 224 239 246 263 273 281 284 278
230 238 242 242 242 246 250 254 257 259 263 266 268 267 261 257 261 257 238 227 225 228 228 230 232 233 232 232 234 233 235 235 235 231 244 252 253 251 250 250 249 250 252 254 252 248 249 250 253 253 242 233 242 256 262 266 268 257 235 222 237 248 256 257 262 262 254 254 255 248 243 242 248 256 264 267 273 265 261 280 291 283 278 286 290
224 224 232 232 232 239 247 254 260 264 266 271 272 272 271 264 264 267 248 228 224 228 230 229 231 233 231 236 238 241 238 238 239 238 229 244 254 254 253 252 252 253 252 253 253 252 251 248 251 250 251 256 253 249 257 255 254 252 252 255 246 238 237 248 251 253 254 254 255 257 253 252 253 255 264 271 269 263 260 256 260 267 270 272 287
nan 211 214 225 231 238 245 250 259 267 271 273 275 276 277 272 264 266 261 236 226 229 233 233 231 230 231 232 237 241 242 241 239 243 247 240 242 250 252 252 253 252 253 254 254 256 256 256 258 258 254 251 258 261 261 270 268 266 263 255 251 250 247 238 237 245 250 253 256 260 260 257 255 259 265 263 266 265 259 255 257 258 262 265 270
nan nan 208 225 231 237 240 245 255 264 269 273 278 280 281 278 268 261 260 248 234 231 231 233 234 234 233 235 240 250 255 244 234 241 253 256 250 247 250 254 254 250 249 251 254 255 258 260 260 258 256 254 256 261 263 258 257 257 259 259 259 258 256 253 249 255 260 256 254 256 260 258 255 256 265 266 262 258 255 256 256 255 262 273 274
213 214 221 237 244 243 244 246 252 261 267 272 276 279 279 278 275 267 260 255 252 243 234 231 232 235 239 241 245 246 247 244 238 237 243 250 246 244 248 252 253 255 254 256 257 258 257 258 260 261 261 258 257 253 255 254 251 248 254 258 256 255 258 257 256 253 256 257 253 251 253 258 257 257 257 261 262 264 264 259 258 256 260 263 261
212 232 241 237 244 246 243 245 248 254 264 270 275 278 276 273 271 269 263 258 256 256 254 247 243 242 239 239 240 241 241 240 239 238 239 240 239 240 242 253 255 256 258 260 260 259 258 258 259 259 256 256 257 252 250 252 253 249 245 246 253 256 256 256 257 257 256 254 252 246 245 247 247 250 249 249 248 253 256 258 259 261 264 264 264
224 232 234 233 234 242 246 255 254 248 255 264 264 268 274 273 269 266 264 261 257 259 261 263 264 264 259 255 253 249 243 239 238 237 238 239 240 240 241 243 246 258 264 260 259 258 256 255 253 253 255 259 259 255 251 253 254 251 247 244 245 250 253 255 252 254 258 257 256 256 252 249 249 248 242 242 247 251 256 257 260 261 264 272 272
231 230 227 226 229 233 238 239 248 258 258 257 261 262 264 269 270 268 266 261 258 258 260 264 269 272 268 263 264 262 261 260 253 243 nan nan nan nan nan 244 247 249 258 265 259 255 255 255 255 258 258 260 260 255 252 252 252 251 247 248 246 246 249 250 251 253 253 255 257 256 257 253 248 247 245 244 247 253 256 255 260 263 264 261 258
217 214 215 223 225 227 233 239 243 246 249 247 249 254 257 261 265 266 265 265 263 263 261 262 265 266 267 nan nan nan nan nan nan 267 nan nan 242 247 243 235 nan nan 244 258 258 253 251 252 255 257 256 255 258 257 252 251 251 251 249 249 252 247 245 246 246 248 250 251 253 252 256 251 249 247 246 244 243 248 255 255 256 265 267 259 251
nan nan nan nan 225 231 238 241 239 241 nan nan 249 253 255 255 258 259 261 263 264 263 263 262 262 262 265 nan nan nan nan nan nan nan nan nan 256 253 244 228 226 241 269 289 283 274 263 254 255 257 254 252 250 252 255 252 250 251 251 250 253 251 245 245 247 250 253 254 253 251 257 251 247 242 241 243 241 244 245 251 257 257 249 240 246
nan nan nan nan nan nan nan nan nan nan nan nan nan nan nan nan nan nan 254 256 256 258 261 263 nan nan nan nan nan nan nan nan nan nan nan nan nan nan 265 262 259 262 271 nan nan 281 277 270 269 268 nan 253 249 251 250 250 248 248 249 251 252 251 242 243 244 248 251 253 254 253 253 245 239 238 238 240 243 245 251 255 249 249 253 256 256
nan nan nan nan nan nan nan nan nan nan nan nan nan nan nan nan nan nan nan nan nan nan nan nan nan nan nan nan nan nan nan nan nan nan nan nan nan nan nan nan 280 280 281 283 nan 281 278 275 275 277 277 270 258 251 251 248 248 246 249 249 248 246 247 247 245 248 251 253 254 252 249 241 240 238 240 241 243 246 253 249 252 254 257 260 nan
nan nan nan nan nan nan nan nan nan nan nan nan nan nan nan nan nan nan nan nan nan nan nan nan nan nan nan nan nan nan nan nan nan nan nan nan nan nan nan nan nan 281 282 284 nan nan nan nan nan nan nan nan 272 256 250 248 245 246 248 248 244 244 244 246 246 246 247 249 248 246 245 245 246 nan nan nan nan nan nan nan nan nan nan nan nan
nan nan nan nan nan nan nan nan nan nan nan nan nan nan nan nan nan nan nan nan nan nan nan nan nan nan nan nan nan nan nan nan nan nan nan nan nan nan nan nan nan nan nan nan nan nan nan nan nan nan nan nan nan nan nan 250 248 244 246 243 241 242 245 247 249 250 249 249 250 250 247 248 nan nan nan nan nan nan nan nan nan nan nan nan nan
nan nan nan nan nan nan nan nan nan nan nan nan nan nan nan nan nan nan nan nan nan nan nan nan nan nan nan nan nan nan nan nan nan nan nan nan nan nan nan nan nan nan nan nan nan nan nan nan nan nan nan nan nan nan nan nan nan nan nan nan 243 245 245 249 256 257 255 253 nan nan nan nan nan nan nan nan nan nan nan nan nan nan nan nan nan
240 240 nan nan nan nan nan nan nan nan nan nan nan nan nan nan nan nan nan nan nan nan nan nan nan nan nan nan nan nan nan nan nan nan nan nan nan nan nan nan nan nan nan nan nan nan nan nan nan nan nan nan nan nan nan nan nan nan nan nan nan nan nan 251 255 nan nan nan nan nan nan nan nan nan 258 255 nan nan nan nan nan nan nan nan nan
246 243 242 245 248 249 249 249 249 nan nan nan nan nan nan nan nan nan 244 244 nan nan nan nan nan nan nan nan nan nan nan nan nan nan nan nan nan nan nan nan nan nan nan nan nan nan nan nan nan nan nan nan nan nan nan nan nan nan nan nan nan nan nan nan nan nan nan nan nan nan nan nan 264 256 nan nan nan nan nan nan nan nan nan nan nan
252 249 249 249 248 248 248 248 247 247 248 nan nan nan nan nan nan nan nan nan nan nan nan nan nan nan nan nan nan nan nan nan nan nan nan nan nan nan nan nan nan nan nan nan nan nan nan nan nan nan nan nan nan nan nan nan nan nan nan nan nan nan nan nan nan nan nan nan nan nan nan nan nan nan nan nan nan nan nan nan nan nan nan nan nan
251 251 249 247 248 246 245 245 245 246 248 249 nan nan nan nan nan nan nan nan nan nan nan nan nan nan nan nan nan nan nan nan nan nan nan nan nan nan nan nan nan nan nan nan nan nan nan nan nan nan nan nan nan nan nan nan nan nan nan nan nan nan nan nan nan nan nan nan nan nan nan nan nan nan nan nan nan nan nan nan nan nan nan nan nan